Weather History for LFTW - March, 2014

Change the Weather History Date:

Friday, March 7, 2014

  Actual Average Record
Temperature  
Mean Temperature 55 °F -  
Max Temperature 68 °F 59 °F 68 °F (2014)
Min Temperature 42 °F 44 °F 30 °F (2005)
Degree Days  
Heating Degree Days 10    
Growing Degree Days 5 (Base 50)    
Moisture  
Dew Point 32 °F    
Average Humidity 43    
Maximum Humidity 70    
Minimum Humidity 14    
Precipitation  
Precipitation 0.00 in - - ()
Sea Level Pressure  
Sea Level Pressure 30.21 in    
Wind  
Wind Speed 5 mph ()    
Max Wind Speed 9 mph    
Max Gust Speed -    
Visibility 6.8 miles    
Events      
Averages and records for this station are not official NWS values.
T = Trace of Precipitation, MM = Missing Value Source: Averaged Metar Reports

Daily Weather History Graph

Daily Weather History Graph

Search for Another Location

Airport or City:

Trip Planner

Search our weather history database for the weather conditions in past years. The results will help you decide how hot, cold, wet, or windy it might be!

Date:

Astronomy

Mar. 07, 2014 Rise Set
Actual Time 7:09 AM CET 6:38 PM CET
Civil Twilight 6:40 AM CET 7:07 PM CET
Nautical Twilight 6:07 AM CET 7:40 PM CET
Astronomical Twilight 5:33 AM CET 8:13 PM CET
Moon 10:38 AM CET (3/7) 12:40 AM CET (3/7)
Length of Visible Light 12h 26m
Length of Day
11h 29m
Waxing Crescent, 39% of the Moon is Illuminated
Mar 7
Waxing Crescent
Mar 8
First Quarter
Mar 16
Full
Mar 24
Last Quarter
Mar 30
New

Hourly Weather History & Observations

Time (CET) Temp. Windchill Dew Point Humidity Pressure Visibility Wind Dir Wind Speed Gust Speed Precip Events Conditions
12:00 AM 48 °F - 30 °F 36% 30.23 in 10 mi North 8.1 mph - -   Clear
12:00 AM 48.2 °F - 30.2 °F 50% 30.21 in 6.2 mi North 8.1 mph - N/A   Unknown
12:30 AM 46.4 °F 44.3 °F 30.2 °F 53% 30.21 in 6.2 mi North 4.6 mph - N/A   Unknown
1:00 AM 46.4 °F 43.5 °F 30.2 °F 53% 30.21 in 6.2 mi North 5.8 mph - N/A   Unknown
1:30 AM 46.4 °F 42.9 °F 30.2 °F 53% 30.21 in 6.2 mi North 6.9 mph - N/A   Unknown
2:00 AM 46 °F - 29 °F 40% 30.24 in 9 mi North 6.9 mph - -   Clear
2:00 AM 46.4 °F 42.9 °F 30.2 °F 53% 30.21 in 6.2 mi North 6.9 mph - N/A   Unknown
2:30 AM 44.6 °F 40.2 °F 30.2 °F 57% 30.21 in 6.2 mi North 8.1 mph - N/A   Unknown
3:00 AM 45 °F - 31 °F 45% 30.24 in 8 mi North 5.8 mph - -   Clear
3:00 AM 44.6 °F 41.4 °F 30.2 °F 57% 30.21 in 6.2 mi North 5.8 mph - N/A   Unknown
3:30 AM 44.6 °F 42.2 °F 30.2 °F 57% 30.21 in 6.2 mi North 4.6 mph - N/A   Unknown
4:00 AM 44 °F - 30 °F 45% 30.24 in 7 mi North 5.8 mph - -   Clear
4:00 AM 44.6 °F 41.4 °F 30.2 °F 57% 30.21 in 6.2 mi North 5.8 mph - N/A   Unknown
4:30 AM 42.8 °F 39.3 °F 30.2 °F 61% 30.21 in 6.2 mi North 5.8 mph - N/A   Unknown
5:00 AM 43 °F - 30 °F 48% 30.24 in 6 mi North 4.6 mph - -   Clear
5:00 AM 42.8 °F 40.1 °F 30.2 °F 61% 30.21 in 6.2 mi North 4.6 mph - N/A   Unknown
5:30 AM 42.8 °F 39.3 °F 33.8 °F 70% 30.21 in 6.2 mi NNW 5.8 mph - N/A   Unknown
6:00 AM 43 °F - 31 °F 52% 30.25 in 6 mi North 5.8 mph - -   Clear
6:00 AM 42.8 °F 39.3 °F 32.0 °F 66% 30.21 in 5.6 mi North 5.8 mph - N/A   Unknown
6:30 AM 42.8 °F 40.1 °F 30.2 °F 61% 30.21 in 5.0 mi North 4.6 mph - N/A   Unknown
7:00 AM 42 °F - 30 °F 52% 30.25 in 5 mi NNE 4.6 mph - -   Clear
7:00 AM 42.8 °F 40.1 °F 30.2 °F 61% 30.21 in 5.0 mi NNE 4.6 mph - N/A   Unknown
7:30 AM 42.8 °F 39.3 °F 30.2 °F 61% 30.24 in 5.0 mi NNW 5.8 mph - N/A   Unknown
8:00 AM 44 °F - 31 °F 48% 30.27 in 6 mi NNW 2.3 mph - -   Clear
8:00 AM 44.6 °F - 30.2 °F 57% 30.24 in 5.6 mi NNW 2.3 mph - N/A   Unknown
8:30 AM 48.2 °F - 33.8 °F 58% 30.24 in 5.6 mi North 5.8 mph - N/A   Unknown
9:00 AM 49 °F - 33 °F 43% 30.26 in 6 mi NNE 6.9 mph - -   Clear
9:00 AM 48.2 °F - 33.8 °F 58% 30.24 in 6.2 mi NNE 6.9 mph - N/A   Unknown
9:30 AM 50.0 °F - 33.8 °F 54% 30.24 in 5.6 mi North 5.8 mph - N/A   Unknown
10:00 AM 53 °F - 35 °F 39% 30.26 in 6 mi North 8.1 mph - -   Clear
10:00 AM 53.6 °F - 35.6 °F 51% 30.24 in 6.2 mi North 8.1 mph - N/A   Unknown
10:30 AM 55.4 °F - 35.6 °F 47% 30.24 in 6.2 mi NNE 5.8 mph - N/A   Unknown
11:00 AM 55 °F - 35 °F 34% 30.26 in 7 mi NNE 5.8 mph - -   Clear
11:00 AM 55.4 °F - 35.6 °F 47% 30.24 in 6.2 mi NNE 5.8 mph - N/A   Unknown
11:30 AM 57.2 °F - 33.8 °F 41% 30.24 in 6.2 mi NNE 5.8 mph - N/A   Unknown
12:00 PM 58 °F - 35 °F 30% 30.25 in 8 mi NNE 4.6 mph - -   Clear
12:00 PM 59.0 °F - 35.6 °F 42% 30.24 in 6.2 mi NNE 4.6 mph - N/A   Unknown
12:30 PM 59.0 °F - 33.8 °F 39% 30.21 in 6.2 mi Variable 3.5 mph - N/A   Unknown
1:00 PM 61 °F - 34 °F 24% 30.23 in 9 mi North 1.2 mph - -   Clear
1:00 PM 60.8 °F - 33.8 °F 36% 30.21 in 6.2 mi Variable 1.2 mph - N/A   Unknown
1:30 PM 64.4 °F - 32.0 °F 30% 30.21 in 6.2 mi Variable 3.5 mph - N/A   Unknown
2:00 PM 65 °F - 32 °F 18% 30.20 in 11 mi NE 1.2 mph - -   Clear
2:00 PM 64.4 °F - 32.0 °F 30% 30.18 in 6.2 mi Variable 1.2 mph - N/A   Unknown
2:30 PM 66.2 °F - 35.6 °F 32% 30.18 in 6.2 mi WNW 3.5 mph - N/A   Unknown
3:00 PM 68 °F - 31 °F 14% 30.18 in 11 mi West 2.3 mph - -   Clear
3:00 PM 68.0 °F - 30.2 °F 24% 30.18 in 6.2 mi Variable 2.3 mph - N/A   Unknown
3:30 PM 68.0 °F - 28.4 °F 23% 30.15 in 6.2 mi Variable 3.5 mph - N/A   Unknown
4:00 PM 68 °F - 31 °F 15% 30.17 in 12 mi SW 3.5 mph - -   Clear
4:00 PM 68.0 °F - 30.2 °F 24% 30.15 in 6.2 mi Variable 3.5 mph - N/A   Unknown
4:30 PM 68.0 °F - 32.0 °F 26% 30.15 in 6.2 mi SW 4.6 mph - N/A   Unknown
5:00 PM 66 °F - 36 °F 22% 30.16 in 11 mi West 6.9 mph - -   Clear
5:00 PM 66.2 °F - 35.6 °F 32% 30.15 in 6.2 mi West 6.9 mph - N/A   Unknown
5:30 PM 64.4 °F - 35.6 °F 34% 30.15 in 6.2 mi West 6.9 mph - N/A   Unknown
6:00 PM 62 °F - 36 °F 27% 30.17 in 12 mi WSW 4.6 mph - -   Clear
6:00 PM 60.8 °F - 35.6 °F 39% 30.15 in 6.2 mi WSW 4.6 mph - N/A   Unknown
6:30 PM 59.0 °F - 35.6 °F 42% 30.15 in 6.2 mi West 4.6 mph - N/A   Unknown
7:00 PM 56 °F - 34 °F 31% 30.19 in 11 mi NNW 3.5 mph - -   Clear
7:00 PM 57.2 °F - 33.8 °F 41% 30.18 in 6.2 mi NNW 3.5 mph - N/A   Unknown
7:30 PM 55.4 °F - 33.8 °F 44% 30.18 in 6.2 mi NNW 3.5 mph - N/A   Unknown
8:00 PM 56 °F - 32 °F 27% 30.20 in 11 mi NE 3.5 mph - -   Clear
8:00 PM 55.4 °F - 32.0 °F 41% 30.18 in 6.2 mi NE 3.5 mph - N/A   Unknown
8:30 PM 53.6 °F - 32.0 °F 44% 30.18 in 6.2 mi NE 4.6 mph - N/A   Unknown
9:00 PM 53 °F - 33 °F 35% 30.21 in 7 mi NNE 3.5 mph - -   Clear
9:00 PM 51.8 °F - 33.8 °F 50% 30.18 in 6.2 mi NNE 3.5 mph - N/A   Unknown
9:30 PM 53.6 °F - 32.0 °F 44% 30.18 in 6.2 mi North 4.6 mph - N/A   Unknown
10:00 PM 52 °F - 32 °F 34% 30.22 in 7 mi North 5.8 mph - -   Clear
10:00 PM 51.8 °F - 32.0 °F 47% 30.21 in 6.2 mi North 5.8 mph - N/A   Unknown
10:30 PM 51.8 °F - 32.0 °F 47% 30.21 in 6.2 mi NNE 6.9 mph - N/A   Unknown
11:00 PM 50 °F - 33 °F 41% 30.22 in 6 mi NNE 6.9 mph - -   Clear
11:00 PM 50.0 °F - 33.8 °F 54% 30.21 in 5.6 mi NNE 6.9 mph - N/A   Unknown
11:30 PM 50.0 °F - 32.0 °F 50% 30.21 in 6.2 mi North 9.2 mph - N/A   Unknown